Wind_Speed
21 21 21 22 21 21 20 19 19 19 19 20 21 22 22 23 24 24 24 24 24 25 25 25 26 26 27 27 28 29 30 31 31 31 32 32 33 33 33 34 34 35 35 35 35 34 33 33 32 31 31 30 29 28 27 26 24 23 23 23 22 21 22 24 27 29 30 30 32
22 22 22 22 21 20 19 19 19 19 20 21 22 23 24 24 25 25 25 25 25 25 25 26 26 26 27 27 28 29 30 31 31 32 32 32 32 33 33 33 34 34 35 35 35 34 33 32 32 31 30 30 30 30 29 27 26 24 24 24 23 22 21 22 25 27 29 29 30
22 22 22 21 20 19 19 19 19 20 22 23 24 25 25 26 26 26 26 26 26 26 26 26 26 27 27 28 28 29 29 29 30 31 31 31 31 32 33 33 34 34 35 35 35 35 35 34 33 31 30 30 30 30 30 29 28 26 24 23 23 22 21 21 22 25 26 27 27
22 22 21 20 19 19 19 20 21 23 24 25 26 27 27 27 27 27 27 27 27 27 26 27 27 27 28 28 28 28 28 28 28 29 29 30 30 31 32 34 35 35 35 35 35 35 35 36 35 33 31 31 30 30 29 29 28 26 25 24 23 22 22 21 22 23 24 26 27
21 21 20 19 19 20 20 22 23 25 26 27 28 29 29 29 28 28 28 27 27 27 28 28 28 28 28 28 28 27 27 27 27 27 28 29 30 31 32 33 34 35 36 36 36 35 35 35 34 33 32 32 30 29 29 29 28 27 26 25 24 23 22 21 22 23 24 25 27
21 20 19 19 20 21 22 23 25 26 28 29 30 30 30 30 29 29 28 28 28 28 28 28 28 28 28 27 27 26 26 26 27 27 27 29 30 31 31 32 33 34 34 35 35 35 34 34 33 33 33 32 31 31 30 29 28 27 26 27 25 24 22 22 22 23 24 25 27
20 20 20 20 21 21 23 24 25 27 28 30 30 31 31 31 31 30 29 29 29 29 29 28 28 27 27 27 27 27 27 27 28 28 28 29 30 30 30 31 32 32 33 33 33 33 33 32 31 31 31 31 31 31 31 29 28 28 28 28 27 25 24 23 23 23 24 25 27
20 20 20 21 21 22 23 25 26 27 28 29 30 31 31 31 31 30 30 29 29 28 28 28 27 27 27 27 27 28 28 28 29 29 29 29 29 29 30 30 30 31 31 32 32 32 32 31 30 29 30 30 31 31 32 31 29 29 29 29 29 28 26 24 24 24 24 26 27
22 21 21 22 22 23 24 25 26 27 28 29 30 31 31 31 30 30 29 28 28 27 27 27 27 27 27 28 28 29 29 29 29 30 30 30 29 29 30 30 30 30 31 32 32 33 32 32 31 30 30 30 30 31 32 33 32 30 29 29 29 29 29 27 25 25 25 26 26
23 23 23 23 24 24 25 26 26 27 28 29 30 30 30 30 30 29 28 27 27 26 26 26 26 27 27 28 29 29 30 30 30 30 30 30 30 30 30 30 30 31 32 32 32 33 33 32 32 31 31 31 31 33 33 33 33 32 30 29 29 29 29 28 26 25 25 25 26
25 25 24 24 25 25 26 26 26 27 27 28 29 29 29 29 29 28 27 26 26 25 25 25 25 26 27 28 29 29 30 30 30 30 30 31 31 31 31 31 31 32 32 33 32 32 31 30 31 31 32 32 31 32 32 32 32 32 31 31 30 29 29 28 26 25 24 25 25
27 26 26 26 26 26 26 26 26 26 27 27 28 28 29 28 28 27 26 25 25 25 25 25 25 26 27 27 28 29 30 30 31 31 32 32 32 33 33 33 33 33 33 33 32 30 29 29 29 30 31 32 32 31 31 31 31 31 31 31 30 29 28 28 28 26 24 24 24
28 27 27 27 27 26 26 26 26 26 26 27 27 28 28 27 27 26 25 24 24 24 25 25 25 26 26 27 28 29 30 31 32 32 33 33 33 34 34 34 34 34 33 32 31 30 29 29 30 31 32 33 32 32 32 31 31 31 31 31 29 28 28 29 28 27 25 24 24
28 28 27 27 27 26 26 26 26 26 26 27 27 27 27 26 25 24 24 23 24 24 25 26 26 26 27 28 29 30 32 32 33 33 34 34 34 35 35 35 35 34 33 32 32 31 31 31 31 32 32 33 34 34 33 32 32 32 31 30 29 29 29 31 29 27 25 24 25
28 27 27 27 26 26 26 26 26 26 26 27 27 26 26 25 24 23 23 24 24 25 26 26 27 28 29 30 31 32 33 34 35 35 36 36 36 35 35 35 35 34 33 33 33 32 32 32 32 32 33 34 34 34 34 33 33 33 32 32 31 30 29 29 28 27 25 24 24
27 26 26 26 26 26 26 26 26 26 26 26 26 25 25 24 23 23 24 25 25 26 27 28 29 30 32 33 34 35 36 36 37 37 37 37 37 36 36 35 35 34 34 34 34 34 34 34 33 34 34 34 35 35 35 34 33 33 33 33 32 31 29 28 28 27 25 24 24
26 26 26 26 26 27 27 27 27 27 27 26 26 25 24 24 24 25 25 26 27 28 29 30 31 32 34 35 36 37 37 37 37 37 37 37 37 37 37 36 36 35 35 34 35 35 35 35 35 35 35 35 35 35 35 35 34 34 34 34 33 31 29 28 28 27 26 25 25
27 27 27 28 28 28 28 28 28 28 27 27 26 26 25 26 26 27 28 28 29 29 30 32 33 34 36 37 38 38 37 37 36 36 36 37 37 37 37 37 37 36 36 35 35 36 36 37 37 37 36 36 36 36 35 35 35 34 34 34 32 31 30 29 28 28 27 26 27
28 28 29 29 29 29 29 29 29 28 28 28 27 27 27 28 28 29 30 31 31 31 32 33 34 36 37 38 39 38 37 37 36 37 37 37 37 37 37 37 37 37 36 36 36 37 37 38 38 38 38 37 36 36 36 35 35 35 35 34 32 31 31 30 29 29 28 28 28
28 29 29 29 29 30 30 30 30 30 29 29 29 29 30 30 31 31 32 32 33 33 33 34 36 37 38 39 39 38 38 37 36 37 37 37 37 37 37 37 37 37 37 37 37 38 38 38 38 38 38 37 37 37 36 36 35 35 35 35 33 31 31 30 29 29 29 29 29
28 29 29 29 30 30 30 31 31 31 31 31 31 31 31 32 32 32 33 33 34 34 35 36 37 38 38 39 39 38 38 37 36 36 37 37 37 37 38 37 37 37 37 38 38 39 39 39 39 39 38 38 37 37 37 36 36 35 36 35 35 33 31 30 29 29 30 30 31
29 29 30 30 30 31 31 32 32 32 32 32 32 32 32 32 32 33 34 34 35 35 36 36 37 37 38 38 38 38 38 37 37 37 37 38 38 38 37 37 38 38 38 38 40 40 40 40 40 39 38 38 38 37 37 36 36 36 36 36 36 34 31 31 30 29 30 32 32
30 30 31 31 31 32 32 32 32 32 32 32 31 31 32 32 32 33 33 34 34 35 36 36 36 36 36 37 37 37 37 38 39 39 39 39 39 39 39 38 38 38 39 40 40 40 40 39 39 38 37 36 36 36 37 36 36 36 35 35 34 33 31 31 30 31 32 33 33
31 32 32 32 32 32 32 32 32 31 31 31 31 31 31 32 32 33 33 34 34 35 36 36 36 36 37 37 38 37 37 38 39 40 40 40 40 40 40 39 39 39 40 40 40 40 39 38 38 37 36 36 36 36 35 35 35 35 35 35 31 30 30 31 31 32 33 34 35
33 33 33 32 32 32 32 31 31 31 31 31 31 31 31 32 33 33 33 34 35 36 37 37 36 36 36 37 38 38 38 38 39 39 39 40 40 40 40 39 39 38 39 39 40 40 40 39 38 36 36 35 35 35 35 35 34 35 35 35 31 28 29 31 31 32 33 34 35
33 33 33 32 32 32 31 31 31 31 31 31 32 32 32 32 33 34 35 35 36 37 38 38 37 37 37 37 37 38 38 38 38 38 37 38 40 40 40 39 38 38 38 39 41 41 42 42 41 39 38 36 35 35 35 35 35 36 36 36 32 30 30 30 30 31 32 33 34
33 33 32 32 32 32 32 32 32 32 32 32 33 33 33 34 34 34 35 36 36 38 38 37 37 37 36 36 37 37 38 37 37 37 36 37 38 40 41 41 39 38 38 39 41 42 43 43 43 43 41 39 37 36 36 36 36 37 37 36 33 33 32 30 30 30 30 31 32
32 32 32 32 32 32 32 32 32 33 33 33 33 34 34 34 34 34 35 37 37 38 38 37 36 35 34 33 34 35 36 36 36 36 37 38 38 39 40 39 40 40 41 41 42 43 44 44 44 43 42 41 39 38 37 37 37 37 36 35 34 34 32 31 30 29 29 29 29
32 32 32 32 32 32 33 33 33 33 33 33 34 34 34 34 35 35 36 37 37 37 36 36 36 34 32 33 33 35 37 37 36 36 36 38 38 39 40 41 41 42 42 43 44 45 45 45 45 45 44 43 41 39 37 37 37 36 35 34 33 33 32 31 30 29 28 28 28
31 31 32 32 32 33 33 33 33 33 33 33 33 34 34 34 35 36 37 37 37 37 36 35 34 34 35 36 37 37 38 39 38 38 37 38 39 40 41 42 42 42 43 44 44 44 45 46 46 46 46 45 43 40 38 37 37 34 32 32 32 32 32 31 30 30 29 29 29
31 31 31 32 32 32 32 32 32 32 32 32 33 33 34 34 35 36 36 36 37 37 37 36 35 36 37 38 38 39 39 40 39 39 38 39 40 41 42 43 43 43 43 44 45 45 46 46 46 47 46 45 44 42 40 39 38 34 31 30 31 32 32 31 31 31 31 31 30
31 31 31 31 32 32 32 32 32 32 32 32 33 34 35 35 36 36 36 36 36 36 36 36 36 36 37 37 38 39 39 39 38 39 39 39 40 41 42 43 43 43 44 45 45 46 47 47 47 47 47 47 45 44 43 41 37 34 32 31 31 32 32 31 31 33 34 33 33
31 31 31 31 31 32 32 32 32 32 32 33 34 35 35 36 36 36 36 36 36 35 35 36 36 36 37 37 38 38 39 39 39 39 39 40 40 41 42 42 42 42 43 44 45 46 47 47 48 48 48 47 46 44 43 40 36 32 31 31 32 33 34 34 34 34 35 35 35
31 31 31 31 31 32 32 32 32 32 33 34 35 36 36 36 36 36 36 36 35 35 35 35 36 36 36 37 37 37 37 38 38 39 39 39 40 41 42 41 41 41 42 43 44 45 46 47 47 47 46 46 45 43 41 38 33 31 30 31 32 33 34 35 36 36 37 37 36
30 30 31 31 32 32 32 33 33 33 34 34 35 36 36 36 36 36 36 36 36 36 36 36 35 36 36 36 36 36 37 37 38 38 39 39 40 40 41 42 42 43 44 44 45 46 46 46 46 45 45 44 42 40 37 34 31 31 30 31 32 33 34 34 35 37 37 37 36
30 30 30 31 32 33 33 33 34 34 35 35 35 36 36 37 36 36 36 35 35 35 35 35 35 35 35 35 36 36 36 37 38 39 39 40 40 40 41 43 44 45 46 46 46 46 46 46 45 45 44 42 38 35 32 31 31 31 31 31 32 32 33 34 35 36 36 35 35
30 30 30 31 32 33 34 34 34 35 35 35 36 36 36 36 36 36 35 34 34 34 34 34 34 34 35 35 36 37 38 38 38 39 40 40 40 41 41 43 44 45 46 46 45 45 46 46 46 46 44 39 33 29 29 30 29 29 30 31 31 32 33 33 34 34 35 35 35
30 30 31 31 33 34 34 34 34 34 35 36 36 36 36 36 35 35 34 33 32 32 33 34 34 35 35 36 36 38 39 39 39 39 40 40 41 41 41 42 43 44 45 45 44 45 46 47 47 45 40 33 30 30 30 28 27 28 28 29 29 30 31 32 32 33 34 34 35
31 31 31 32 33 34 34 35 34 34 35 35 35 36 36 35 35 34 34 33 32 32 33 34 35 36 36 37 37 38 39 39 39 39 39 39 40 41 41 41 42 44 45 45 45 45 45 44 42 37 33 33 33 32 30 28 27 27 28 28 28 28 29 30 30 31 32 33 35
31 32 32 32 33 33 34 34 34 34 34 35 35 35 35 35 35 34 34 33 33 32 33 34 36 37 37 37 37 37 38 38 39 38 38 39 40 42 42 42 43 45 47 47 45 42 39 35 31 32 36 36 35 33 30 29 28 28 27 27 27 26 27 27 28 29 30 31 33
31 32 32 33 33 33 33 34 34 35 35 35 35 35 35 35 34 33 33 32 33 32 33 34 35 36 36 36 35 35 36 37 38 38 39 40 41 43 44 44 45 45 44 40 35 30 28 29 33 38 40 37 35 33 32 30 29 28 28 27 27 27 26 26 26 27 28 29 30
Wind_Direction
307 307 306 305 303 300 297 295 295 296 298 298 299 299 298 297 297 296 296 296 297 297 297 298 298 299 301 302 304 305 306 306 307 308 308 308 307 306 305 304 304 304 304 303 302 301 299 298 298 298 298 298 299 299 299 299 299 299 299 299 299 299 299 298 295 291 283 270 258
308 308 307 306 304 302 300 299 300 301 302 302 302 301 300 298 297 295 294 294 293 294 294 294 295 296 298 299 301 302 304 305 306 306 307 307 307 307 306 305 303 303 303 303 302 300 298 297 296 295 294 295 295 296 296 296 297 297 296 296 297 297 297 296 295 295 291 282 268
309 308 307 306 306 305 305 306 307 307 308 307 306 305 302 300 297 295 294 293 293 293 292 292 293 294 295 297 298 300 301 302 303 304 305 305 306 307 307 307 305 304 303 303 302 300 298 296 294 292 291 291 291 291 292 293 295 295 294 294 295 295 295 295 295 296 296 292 282
308 308 307 308 308 309 310 311 312 312 311 310 308 306 303 301 298 296 294 293 293 292 291 291 292 293 294 296 297 298 299 300 301 303 304 305 306 306 307 307 307 306 305 304 303 300 298 296 294 291 289 288 286 286 287 289 291 292 291 292 292 293 293 293 294 296 296 296 291
307 306 307 308 309 311 312 312 313 312 311 309 307 305 302 300 298 295 294 293 292 291 292 292 292 293 294 295 296 297 298 300 301 303 304 304 305 306 306 306 307 306 306 305 304 302 299 296 292 289 287 286 285 283 283 285 287 288 289 290 289 289 289 291 292 294 295 294 293
305 305 305 306 308 309 310 310 310 310 309 307 305 302 300 298 296 295 293 292 292 293 293 293 293 293 294 294 295 297 298 300 301 302 304 304 304 305 306 306 306 305 305 305 304 303 300 296 291 287 285 284 284 283 282 283 283 285 286 288 286 285 286 287 289 291 292 291 289
302 302 303 304 305 306 307 307 307 307 306 304 302 300 298 297 295 294 294 294 294 294 294 294 293 293 294 294 295 297 298 300 301 302 303 304 304 304 305 305 304 304 304 304 304 304 302 299 292 286 283 282 282 282 282 282 281 282 283 284 284 284 283 283 285 287 287 287 286
301 300 301 301 302 303 304 304 304 304 303 301 299 298 297 296 295 294 294 294 294 295 295 295 294 294 294 294 295 297 298 300 301 302 302 303 304 304 304 303 303 303 303 302 303 303 303 302 296 289 284 281 280 281 282 282 281 280 280 281 283 283 282 281 282 283 284 284 284
301 300 300 300 300 301 302 302 302 301 300 299 297 297 296 295 294 294 294 294 295 296 296 296 295 295 295 295 296 297 299 300 301 301 302 302 302 302 302 302 302 302 301 301 300 300 301 301 298 293 287 282 279 279 279 280 279 278 278 279 281 282 282 280 279 280 281 282 281
302 301 300 300 300 300 300 301 300 299 298 297 297 296 296 295 294 294 294 295 296 297 298 298 298 298 297 297 298 298 299 300 300 300 300 300 300 300 300 300 300 300 300 299 299 298 298 297 296 294 290 285 281 279 278 278 277 276 275 276 277 278 279 279 278 278 279 279 277
301 300 299 298 298 299 299 299 298 298 297 296 295 295 295 294 294 294 295 296 297 298 300 300 301 301 300 300 299 299 299 298 298 298 298 297 297 297 297 297 297 297 297 297 298 298 297 295 294 292 291 288 283 280 277 276 275 274 273 273 273 274 275 276 277 277 277 276 274
300 298 297 296 296 296 297 296 296 296 295 295 294 294 294 294 294 295 296 297 298 300 301 302 303 303 303 302 301 299 298 297 296 296 295 294 294 294 294 294 294 294 294 295 295 295 295 294 293 292 291 289 286 282 278 275 273 271 270 270 270 269 270 272 275 276 275 273 271
297 296 294 294 294 294 294 294 294 294 294 293 293 293 293 293 293 294 296 298 299 301 302 303 304 304 304 303 302 300 298 296 295 294 293 292 292 292 292 292 292 292 292 292 292 292 292 292 291 291 290 289 287 284 280 276 272 269 267 266 265 264 266 270 272 273 272 271 267
296 294 293 293 293 293 293 293 293 293 293 293 292 292 292 292 293 294 296 298 300 302 303 304 304 303 303 302 301 299 297 296 294 292 291 290 289 289 289 288 288 288 289 289 289 289 289 290 290 290 289 289 287 285 282 278 273 268 264 261 259 259 262 267 268 268 267 265 262
296 295 294 294 294 294 294 294 294 294 293 293 292 292 292 292 293 295 297 299 300 302 302 303 302 301 300 300 299 297 296 294 292 290 289 288 287 286 285 285 285 285 285 286 287 287 287 287 287 287 287 287 286 285 283 279 274 269 264 259 256 256 257 261 262 262 260 258 255
298 298 298 298 297 297 296 296 295 295 294 293 293 292 292 293 294 296 297 299 300 300 300 300 300 299 298 297 296 295 293 292 290 288 286 285 284 284 283 282 282 282 283 284 285 285 285 285 285 285 285 285 285 284 282 280 275 270 264 259 255 253 253 255 256 256 254 251 247
301 302 302 301 301 300 299 298 297 296 295 294 293 292 292 293 294 295 296 297 298 298 298 298 297 297 296 296 295 293 292 290 288 286 284 283 282 281 281 280 280 280 280 281 282 283 284 284 284 283 283 283 282 282 281 279 275 271 265 260 255 251 250 250 251 251 249 246 240
303 303 303 302 302 301 300 299 298 297 295 294 293 292 292 293 294 294 295 295 295 296 297 296 296 296 295 294 293 291 290 287 285 283 282 281 280 279 279 278 278 278 279 279 280 281 282 283 283 282 282 281 280 280 279 277 275 270 265 260 254 249 247 247 247 247 245 241 236
301 301 300 300 300 299 299 298 297 296 295 293 292 292 291 291 292 293 293 293 293 294 294 295 295 294 293 292 291 289 287 285 283 281 280 279 278 277 277 276 277 277 277 278 279 280 281 281 281 281 280 279 278 277 276 275 273 270 265 259 252 247 245 244 244 243 241 238 234
299 298 298 298 297 297 297 297 296 295 293 292 291 291 290 290 291 291 291 291 292 292 292 293 292 292 291 290 288 286 284 282 281 280 279 278 277 276 275 275 276 276 277 277 278 278 279 280 280 279 279 277 276 275 274 273 272 269 264 259 252 246 241 240 240 240 238 235 232
299 299 298 298 298 297 297 296 295 294 293 292 291 290 290 290 290 290 290 291 291 291 291 291 290 289 289 288 286 284 283 282 280 279 278 277 276 275 275 275 276 276 276 276 277 277 277 278 278 277 277 276 274 273 272 271 270 268 264 258 252 245 239 236 236 236 235 232 230
303 302 302 301 300 299 297 296 295 294 293 292 291 291 291 291 291 291 290 291 291 290 290 289 288 287 286 285 284 282 282 281 279 278 277 276 276 275 275 275 275 275 275 275 276 276 276 276 276 276 275 274 272 271 270 269 268 267 263 257 251 243 236 233 233 234 233 231 228
306 306 304 303 302 300 299 298 296 295 294 293 293 292 292 292 292 292 292 291 291 290 289 288 287 285 284 283 282 281 280 279 279 278 276 275 275 274 274 274 274 274 274 275 275 275 275 275 275 275 274 272 271 269 268 266 266 264 261 256 249 240 233 231 232 233 232 230 227
308 307 305 304 303 301 300 299 298 297 296 295 294 294 293 293 292 292 292 291 290 289 289 288 287 285 284 283 281 280 278 277 277 277 276 275 274 274 274 274 274 274 273 273 273 272 272 272 273 273 273 272 271 269 267 265 264 262 259 254 246 237 231 231 232 232 230 228 224
308 307 306 305 304 303 301 300 299 298 297 296 295 294 294 293 293 292 292 291 290 289 289 288 287 285 284 283 282 280 278 276 276 275 275 275 275 274 274 274 274 273 272 272 271 270 270 269 269 269 270 270 270 268 267 265 263 261 257 252 244 234 229 229 231 230 227 223 220
308 307 306 305 305 304 302 301 300 299 297 296 295 295 294 293 293 292 292 291 290 289 289 288 287 285 284 282 281 279 278 276 275 274 274 274 275 275 274 274 273 272 271 271 270 270 269 268 267 266 266 266 266 266 266 265 264 262 258 251 241 232 226 225 225 224 221 218 216
308 308 307 307 306 305 303 302 301 299 298 297 296 295 294 294 293 293 292 291 290 289 288 287 286 285 283 282 280 278 277 276 275 274 273 273 274 274 275 274 273 272 271 270 270 270 270 269 268 266 264 262 262 262 263 263 263 261 257 248 237 229 224 220 218 216 214 211 209
309 309 309 308 307 305 304 303 302 300 299 298 296 295 295 294 293 293 291 290 290 289 288 287 285 284 282 280 279 278 277 276 275 275 275 274 274 274 273 273 272 272 271 270 269 269 269 269 268 266 263 261 259 258 259 260 260 258 252 242 230 223 219 216 214 210 205 201 199
310 310 310 309 307 306 304 303 302 301 300 298 297 296 295 294 293 292 291 290 289 288 287 286 285 284 282 279 278 278 278 278 277 276 276 276 274 273 273 272 272 271 271 270 270 269 269 268 267 266 264 261 259 257 256 256 256 253 245 234 223 215 212 211 207 201 196 192 189
311 311 310 309 308 306 305 304 303 301 300 299 297 296 295 294 293 291 290 289 288 287 286 285 284 283 281 280 279 279 279 279 278 278 277 276 275 274 273 272 272 271 271 270 269 269 268 267 266 265 264 261 258 256 255 254 252 248 239 226 216 211 207 202 198 194 189 186 182
312 312 311 310 308 307 305 304 303 302 301 299 298 296 295 293 292 290 289 288 287 287 286 285 284 282 281 280 280 280 279 279 279 278 276 275 275 274 273 273 272 271 270 270 269 268 267 266 265 264 262 260 257 255 254 252 249 241 230 217 209 204 201 197 193 189 185 181 176
313 313 312 311 309 307 306 305 304 302 301 299 297 295 294 292 291 290 289 288 287 287 286 285 284 283 282 281 281 280 279 279 278 277 276 275 274 273 273 272 271 270 270 270 269 267 266 265 264 262 261 259 256 254 252 250 243 232 218 208 202 198 194 191 187 185 182 179 175
314 314 312 310 309 307 306 305 304 302 300 298 296 295 293 292 291 290 289 288 287 287 286 285 284 283 282 282 281 281 280 279 277 276 275 274 273 273 272 272 271 270 269 269 268 266 265 264 263 261 259 257 255 253 251 246 236 220 207 200 196 193 189 186 183 181 179 177 174
315 313 311 309 308 306 305 304 303 301 299 297 296 294 293 292 291 290 289 288 288 287 286 284 283 282 281 281 280 280 279 278 278 277 276 275 273 273 272 271 271 270 269 268 267 266 265 263 261 259 256 254 252 251 248 240 223 207 196 193 190 187 185 182 180 178 176 174 171
314 312 310 308 306 305 303 302 301 300 298 297 295 294 293 292 291 290 289 288 288 287 285 283 282 281 281 280 279 278 278 277 277 276 276 275 274 273 272 271 270 270 269 268 267 266 264 262 260 256 254 251 250 248 240 224 206 194 188 185 182 180 178 177 175 173 172 170 167
312 310 308 306 305 303 302 301 300 299 297 296 295 294 293 292 291 290 289 288 288 287 285 283 282 282 281 280 280 279 278 277 277 277 276 275 274 273 272 271 271 271 270 269 267 266 264 261 258 256 253 251 247 238 221 201 189 183 179 176 174 172 171 170 169 168 166 165 162
310 308 306 305 303 302 301 300 299 298 297 295 295 294 293 293 292 291 290 290 289 287 286 285 283 283 282 281 280 279 279 277 277 276 276 275 274 273 272 272 272 272 271 270 268 266 264 262 259 257 253 246 233 212 193 182 176 172 169 166 165 165 164 163 163 162 161 160 158
308 307 305 303 302 301 300 300 299 297 296 296 295 295 294 294 293 292 292 291 290 288 287 286 284 283 282 281 280 280 279 278 276 275 275 274 274 273 272 272 273 273 273 272 270 268 266 264 262 257 246 226 201 183 173 168 164 161 158 156 155 155 156 156 156 156 156 156 155
307 306 304 303 302 301 300 300 298 297 297 297 296 296 295 295 294 293 293 292 290 288 286 285 285 283 283 282 282 280 279 278 277 276 275 275 275 275 274 274 274 275 275 274 273 270 267 263 256 243 220 193 177 168 162 158 154 151 148 146 145 145 146 148 149 150 151 152 152
306 306 305 303 302 301 301 300 299 298 298 297 297 296 296 295 294 293 292 291 289 287 286 285 285 284 284 283 282 281 280 280 279 278 277 277 278 278 278 277 277 277 277 276 273 267 259 247 229 205 186 172 165 160 155 150 147 144 142 140 137 136 137 139 141 142 144 146 147
307 306 305 304 303 302 301 301 300 299 299 297 296 295 295 295 294 293 292 291 289 288 286 286 286 285 285 284 283 281 281 281 281 280 280 281 281 281 281 279 278 277 276 272 262 247 226 203 186 175 168 162 157 153 149 145 142 139 138 137 136 134 132 132 133 135 137 140 142
Height
785 784 783 783 782 781 780 780 779 779 778 778 777 776 775 774 773 772 772 771 770 769 769 768 767 766 765 764 764 762 761 760 759 759 758 757 756 755 754 753 752 751 750 749 748 747 746 745 745 744 744 743 743 742 742 742 743 743 743 743 743 743 743 742 741 740 739 738 738
784 783 782 781 781 780 779 779 778 778 777 776 776 775 774 773 772 771 770 769 769 768 767 766 765 765 764 763 762 762 761 759 759 758 757 756 755 754 754 752 751 750 749 748 747 746 745 744 744 743 742 741 741 740 740 740 741 741 741 741 741 741 740 740 739 739 738 736 735
782 782 781 780 779 779 778 778 777 776 776 775 774 774 773 772 771 769 769 768 767 766 765 764 764 763 762 762 761 760 759 759 758 757 756 755 754 754 753 752 751 750 749 748 746 745 744 743 742 741 740 739 739 738 738 738 739 739 739 739 739 739 738 738 737 737 736 735 734
781 780 780 779 778 778 777 776 775 775 774 774 773 772 771 770 769 768 767 766 765 764 763 763 762 761 760 760 759 759 758 757 756 755 754 754 753 752 752 751 750 749 748 747 745 744 743 742 741 740 739 738 737 736 736 736 736 736 737 737 737 737 736 735 735 734 734 733 732
780 779 779 778 777 776 776 775 774 774 773 772 771 770 769 769 768 767 765 764 763 762 762 761 760 759 759 758 757 756 756 755 754 754 753 752 751 751 750 749 749 748 746 745 744 743 742 741 740 739 737 736 735 734 734 734 734 734 734 734 734 734 734 733 733 732 732 732 731
778 778 777 776 775 775 774 773 773 772 771 771 770 769 768 767 766 765 764 763 762 761 760 759 758 757 756 756 755 754 754 753 752 752 751 750 749 749 748 748 747 746 745 744 743 742 740 739 738 737 735 734 733 732 732 732 732 732 731 732 732 732 732 731 731 731 730 730 729
776 776 775 774 774 773 772 772 771 770 770 769 768 767 766 765 764 763 762 761 760 759 758 757 756 755 755 754 753 752 751 751 750 749 749 748 748 747 746 745 745 744 743 742 741 740 739 738 736 735 734 733 731 730 729 730 729 729 729 729 729 729 729 729 729 729 729 728 727
775 774 773 773 772 771 770 770 769 769 768 767 766 765 764 763 762 761 760 759 758 757 756 756 755 754 753 752 751 750 749 749 748 747 747 746 745 744 744 743 742 742 741 740 739 739 737 736 735 733 732 730 729 728 728 728 727 727 726 726 726 726 726 726 726 726 726 725 725
773 772 772 771 770 769 769 768 767 767 766 765 764 764 763 762 760 759 759 757 756 756 755 754 753 752 751 750 749 748 748 747 746 745 744 744 743 742 741 741 740 739 738 738 737 736 735 734 733 732 730 729 727 726 725 725 725 724 723 723 723 723 723 723 724 724 723 723 722
772 771 770 769 768 768 767 766 765 765 764 763 762 761 761 760 759 758 757 756 755 754 753 752 751 751 750 749 748 747 746 745 744 743 743 742 741 740 739 738 737 736 735 735 734 734 733 732 731 729 728 727 725 724 723 723 722 721 721 720 720 720 720 720 720 721 720 720 719
770 769 768 767 767 766 765 764 764 763 762 761 760 759 759 758 757 756 755 754 753 752 751 751 750 749 748 747 746 746 745 744 743 742 741 740 739 738 737 736 735 734 733 732 732 731 730 729 728 726 725 724 723 722 720 720 719 719 718 717 717 717 717 717 717 718 718 717 717
768 767 766 765 765 764 763 762 761 761 760 759 758 758 757 756 755 754 753 752 751 750 749 749 749 748 747 746 745 744 744 743 742 740 739 738 737 735 734 734 733 732 731 730 729 729 728 727 725 724 723 722 721 720 719 717 717 716 715 714 714 714 714 714 714 715 715 715 714
766 765 764 764 763 762 761 760 759 759 758 757 756 755 755 754 753 753 752 751 749 749 748 747 747 746 745 744 744 743 742 741 740 739 738 736 735 734 732 731 730 729 728 727 727 726 725 724 723 722 721 719 718 718 717 715 714 713 712 712 711 711 711 711 712 712 712 712 712
764 763 762 761 760 760 759 758 757 756 755 755 754 754 753 752 751 751 750 749 748 747 746 745 745 744 744 743 743 742 741 740 739 737 736 734 733 731 730 729 728 727 726 724 724 724 723 722 720 719 718 717 716 715 714 714 712 711 710 709 709 708 708 709 709 709 709 709 709
762 761 760 759 759 758 757 756 755 754 753 753 752 751 751 750 749 749 748 747 746 745 744 744 743 742 742 742 741 740 739 738 737 735 734 732 730 729 728 726 725 724 723 722 721 721 720 719 718 717 716 714 713 712 712 711 710 709 708 706 705 705 705 705 706 707 707 707 707
760 759 758 758 757 756 755 754 753 752 751 750 750 749 749 748 747 746 745 744 744 743 743 742 741 741 740 739 739 738 737 736 735 733 731 729 728 727 725 724 723 722 721 720 719 718 717 716 715 714 713 712 711 709 709 708 707 706 705 704 703 702 702 703 703 704 704 704 705
758 757 757 756 755 754 753 752 751 750 749 749 748 747 746 745 744 744 743 742 742 741 740 740 739 739 738 737 736 736 735 734 732 730 729 727 725 724 723 721 720 719 719 717 716 715 714 713 712 711 711 709 708 707 706 705 704 703 702 701 700 700 699 700 700 701 701 702 702
757 755 755 754 753 752 751 750 749 748 747 746 746 745 744 743 742 741 740 740 739 739 738 737 737 736 736 734 734 733 733 731 729 728 726 724 723 721 720 718 717 716 716 715 714 712 711 710 709 708 708 707 705 704 703 702 701 700 699 699 698 697 697 697 698 698 699 699 699
755 754 753 752 751 750 749 748 747 746 745 744 743 742 741 740 739 739 738 737 737 736 736 734 734 733 733 732 731 730 729 728 726 724 723 721 720 718 717 715 714 713 713 712 710 709 708 707 706 705 704 704 703 701 700 699 698 697 696 695 695 694 694 694 694 695 696 696 696
753 752 751 750 749 748 747 746 745 744 743 742 741 740 739 738 737 736 735 734 734 734 733 732 731 730 729 729 728 727 725 724 723 721 719 718 716 715 713 712 711 710 709 709 707 706 705 704 703 702 701 700 699 699 697 696 695 694 693 692 692 691 691 691 692 692 693 693 694
752 751 749 748 747 746 745 744 743 742 741 739 738 737 736 735 734 733 732 731 731 730 730 729 728 727 726 725 724 723 722 720 719 718 716 714 713 711 710 709 708 707 706 705 704 703 701 700 699 699 698 697 696 695 694 693 692 691 690 689 689 688 687 688 688 689 690 690 691
750 749 748 747 745 744 743 742 741 739 738 737 736 734 733 732 731 730 729 729 728 727 727 726 725 724 723 722 721 719 718 717 715 714 712 711 709 708 707 706 705 704 702 701 700 699 698 697 696 695 695 694 693 692 691 690 689 688 687 686 685 684 684 684 685 686 687 687 688
749 748 747 745 744 742 741 740 738 737 736 734 733 732 731 729 729 728 726 726 725 724 723 722 721 720 719 718 717 716 714 712 711 709 708 707 706 704 703 703 701 700 699 697 696 695 694 693 692 692 691 690 689 688 687 686 685 684 684 683 682 681 681 681 682 683 683 684 684
748 746 745 744 742 740 739 738 736 734 733 732 731 729 728 727 726 725 724 723 721 720 719 719 718 717 715 714 713 712 710 709 707 705 704 703 701 700 699 699 698 696 694 693 692 691 690 689 689 688 687 687 686 685 684 683 682 681 680 679 679 678 677 678 679 679 680 680 681
746 744 743 742 740 739 737 735 734 732 731 730 729 727 726 724 723 722 721 719 718 717 716 715 714 713 712 710 709 708 707 705 703 701 699 698 697 696 695 694 693 692 690 689 687 686 686 686 685 685 684 683 683 681 680 679 678 678 677 676 675 674 674 674 675 676 677 677 678
744 743 741 740 738 737 735 734 732 730 729 728 726 725 724 722 721 719 718 716 715 714 713 712 710 709 708 707 705 704 702 701 699 698 696 694 693 692 691 690 689 687 686 684 683 682 681 681 681 681 681 680 679 678 677 676 675 674 673 672 672 671 671 671 672 673 674 674 675
743 741 739 738 736 735 733 731 730 728 727 725 724 723 721 719 718 716 715 713 712 710 709 708 707 706 704 703 701 699 698 696 695 694 693 691 689 688 686 685 684 683 681 679 678 678 677 677 677 677 677 677 676 675 674 672 671 670 669 669 668 668 668 668 669 670 671 672 673
741 740 738 736 734 733 731 729 728 726 725 723 722 720 719 717 715 714 712 710 709 708 706 705 704 703 701 699 697 695 694 692 691 690 689 687 686 684 682 681 679 678 676 675 674 674 673 672 672 672 672 672 672 671 670 669 668 667 666 665 664 664 664 665 667 668 669 670 671
740 738 736 734 733 731 729 727 726 724 723 721 719 718 716 714 713 711 709 708 706 705 703 702 700 699 698 695 693 692 690 689 688 686 685 683 681 679 678 676 675 673 672 671 670 669 669 668 668 667 667 668 667 667 665 664 664 663 662 661 660 660 661 662 664 666 667 668 669
738 737 735 733 731 729 727 725 724 722 721 719 717 716 714 712 710 708 707 705 703 702 700 699 697 696 694 692 690 689 687 685 684 683 681 679 677 675 673 672 670 669 667 666 665 665 664 663 663 662 662 663 663 663 661 660 659 659 658 657 657 657 658 660 662 663 664 666 667
737 735 733 731 729 727 725 723 722 720 719 717 715 714 712 709 708 706 704 702 700 698 697 696 694 692 690 688 687 685 684 682 680 679 677 675 673 671 669 667 666 664 662 661 661 660 659 658 658 657 657 657 658 658 657 656 655 655 654 654 654 654 656 657 659 661 662 663 664
735 734 731 729 727 725 723 721 720 718 716 715 713 711 709 707 705 703 701 699 698 696 694 692 690 689 686 684 683 682 680 678 676 675 673 671 669 667 664 662 660 659 657 656 656 655 654 653 652 652 652 652 653 653 652 652 651 651 650 650 651 651 653 655 657 658 659 661 662
734 732 730 728 725 723 721 720 718 716 714 712 710 709 706 704 702 700 698 696 695 693 691 689 687 685 683 681 679 678 676 674 672 671 669 667 665 662 660 658 655 654 652 651 650 649 648 647 647 646 646 647 647 648 648 647 647 647 647 647 648 649 650 652 654 655 657 659 660
732 730 728 726 724 722 719 718 716 714 712 709 707 705 704 702 699 697 695 694 692 690 688 686 684 682 680 678 676 674 672 670 668 666 664 663 660 658 655 653 650 648 647 646 645 644 643 642 641 641 641 642 643 643 643 643 644 644 644 644 646 647 649 650 651 653 655 657 658
731 729 727 724 722 720 718 715 713 711 709 707 704 702 700 699 697 694 692 690 689 687 685 682 681 679 677 674 673 671 669 666 664 662 660 658 656 654 650 647 645 643 642 641 640 638 637 637 636 636 636 637 638 639 639 640 640 640 641 642 644 645 647 649 650 652 654 655 657
729 727 725 722 720 718 715 713 711 709 706 704 701 699 697 695 693 691 689 688 686 684 681 679 677 675 673 671 669 667 665 663 660 658 656 654 652 649 646 642 639 637 636 635 634 633 632 631 631 631 632 633 634 635 635 636 636 637 639 640 642 644 646 648 649 651 653 655 656
728 725 723 720 718 715 713 711 708 706 704 701 699 697 694 692 690 688 686 685 683 680 678 675 674 672 669 667 665 663 661 659 656 654 651 649 647 644 641 637 634 631 630 629 629 628 627 626 625 626 627 629 630 631 632 633 634 635 637 639 641 643 645 647 649 651 653 654 656
725 724 721 718 715 713 710 708 706 704 701 698 696 694 692 689 687 685 683 682 680 678 674 672 670 668 665 664 661 658 656 654 652 650 647 644 642 640 637 633 629 626 625 624 623 622 621 620 620 620 623 625 626 627 629 630 632 635 636 638 640 642 644 646 649 650 652 654 656
724 721 719 716 714 711 709 706 704 701 699 696 693 691 689 687 685 683 681 679 678 675 672 669 666 664 662 660 657 654 651 649 648 645 643 640 637 635 633 629 625 621 619 618 617 616 615 614 615 616 618 620 622 624 626 629 631 633 635 638 640 642 644 646 649 651 653 655 656
721 719 717 715 712 709 707 704 701 699 697 694 691 689 686 684 682 680 678 676 674 672 669 666 663 660 658 656 654 650 647 644 643 641 639 636 633 631 628 625 621 617 614 612 611 610 609 610 610 612 614 616 618 621 624 627 630 632 635 637 640 642 645 647 649 652 654 656 658
720 718 715 713 710 708 705 702 699 697 694 692 689 687 684 682 680 678 675 674 671 669 666 663 660 657 655 653 650 647 643 640 638 636 635 632 630 626 624 620 616 612 609 607 605 605 605 607 608 610 612 614 616 619 622 625 628 631 634 637 639 642 645 649 651 653 656 658 660